User: anonymous   Login
Location: Theydon Bois
(51.6750°N, 0.1050°E)
Time: 18:06:35
(UTC+01:00)
Language:

Cosmos 2360 Rocket - Orbit

View from above orbital plane
View from above orbital plane
View from above satellite
View from above satellite

Ground track
Ground track

The orbit data is extracted from the following two-line orbital elements,

1 25407U 98045B   17290.10042607 -.00000273  00000-0 -11470-3 0  9993
2 25407  71.0100 145.2368 0007387   3.4210 356.6962 14.15767823993432
Epoch (UTC): 17 October 2017 02:24:36
Eccentricity: 0.0007387
inclination: 71.0100°
perigee height: 834 km
apogee height: 845 km
right ascension of ascending node: 145.2368°
argument of perigee: 3.4210°
revolutions per day: 14.15767823
mean anomaly at epoch: 356.6962°
orbit number at epoch: 99343

The dashed part of the orbit path shows where the satellite is in the earth's shadow,  

DLR